sat.trackr.live / text

‹ back to catalog

ONEWEB-0596

NORAD 54662 · 2022-166W

PAYLOAD ACTIVE UNKNOWN

§ Identity

Operator
Country
UK
Launch date
2022-12-08
Launch site
AFETR
Launch vehicle
Mass (kg)
RCS (m²)

Purposes: comms

External: N2YO · Heavens-Above · Gunter

§ Orbital elements

Epoch: 2026-05-25T05:15:01.111104Z

Period
108.94 min
Inclination
87.9253°
Eccentricity
0.0001926
Mean motion
13.21825329 rev/d
Perigee alt
1,176.3 km
Apogee alt
1,179.2 km
Semi-major
7,555.9 km
B*
1.4516e-4
RAAN
248.5543°
Arg perigee
102.6300°
Mean anomaly
257.5049°
Rev number
16,850

§ Raw data

ONEWEB-05961 54662U 22166W   26145.21876286  .00000073  00000+0  14516-3 0  99972 54662  87.9253 248.5543 0001926 102.6300 257.5049 13.21825329168508

JSON: /api/v1/satellites/54662 · /tle

For live sub-satellite position, see the globe view (requires WebGL).

§ Visibility from observer

Set your observer location to see the next 7 days of passes ≥ 10°. The values pass through the URL so the page stays shareable.

No JS? Fill the form by hand. The geolocation button needs JavaScript.